SAS157 ESSA-ESGG

Flight info

Callsign SAS157
Flight time 1h 4m
Altitude 20000
Route ARS N623 BEDLA N866 MOXAM
Aircraft AT76/M-SBDFGRY/S

Departure

Time 2026-05-01 12:32
Airport Stockholm-Arlanda Airport (ESSA)

Arrival

Time 2026-05-01 13:36
Airport Göteborg Landvetter Airport (ESGG)
Time Latitude Longitude Altitude Speed Heading
2026-05-01 11:59 59.65318 17.93803 108 ft 0 kts 248°
2026-05-01 12:22 59.65323 17.93826 108 ft 4 kts 249°
2026-05-01 12:22 59.65332 17.93876 106 ft 4 kts 247°
2026-05-01 12:22 59.65341 17.93914 106 ft 4 kts 248°
2026-05-01 12:22 59.65349 17.93964 107 ft 4 kts 255°
2026-05-01 12:23 59.65353 17.93989 108 ft 0 kts 256°
2026-05-01 12:25 59.65353 17.93986 108 ft 0 kts 265°
2026-05-01 12:26 59.65365 17.93966 109 ft 3 kts 348°
2026-05-01 12:26 59.65480 17.93910 110 ft 11 kts 343°
2026-05-01 12:26 59.65552 17.93869 110 ft 11 kts 345°
2026-05-01 12:27 59.65591 17.93786 110 ft 7 kts 269°
2026-05-01 12:27 59.65570 17.93608 108 ft 13 kts 255°
2026-05-01 12:28 59.65519 17.93198 108 ft 11 kts 256°
2026-05-01 12:28 59.65505 17.93092 108 ft 5 kts 255°
2026-05-01 12:28 59.65451 17.92777 108 ft 10 kts 247°
2026-05-01 12:29 59.65429 17.92666 107 ft 10 kts 270°
2026-05-01 12:29 59.65493 17.92561 103 ft 19 kts 336°
2026-05-01 12:29 59.65790 17.92430 102 ft 19 kts 12°
2026-05-01 12:30 59.65912 17.92341 106 ft 4 kts 281°
2026-05-01 12:30 59.65924 17.92211 110 ft 12 kts 281°
2026-05-01 12:30 59.65914 17.92116 110 ft 5 kts 212°
2026-05-01 12:31 59.65899 17.92109 111 ft 0 kts 189°
2026-05-01 12:31 59.65809 17.92075 108 ft 41 kts 191°
2026-05-01 12:31 59.65324 17.91899 102 ft 99 kts 191°
2026-05-01 12:31 59.64539 17.91670 282 ft 118 kts 192°
2026-05-01 12:32 59.63757 17.91493 928 ft 111 kts 195°
2026-05-01 12:32 59.62359 17.90023 1628 ft 123 kts 243°
2026-05-01 12:32 59.61972 17.88474 1958 ft 130 kts 245°
2026-05-01 12:33 59.61505 17.86730 2012 ft 156 kts 240°
2026-05-01 12:33 59.60909 17.84818 2261 ft 167 kts 242°
2026-05-01 12:33 59.60364 17.82794 2640 ft 169 kts 245°
2026-05-01 12:33 59.59857 17.80762 2943 ft 168 kts 256°
2026-05-01 12:34 59.59879 17.78474 3333 ft 166 kts 278°
2026-05-01 12:34 59.60016 17.76251 3674 ft 166 kts 279°
2026-05-01 12:34 59.60183 17.74015 4065 ft 164 kts 279°
2026-05-01 12:34 59.60333 17.71793 4426 ft 163 kts 279°
2026-05-01 12:35 59.60480 17.69578 4795 ft 162 kts 279°
2026-05-01 12:35 59.60621 17.67363 5178 ft 163 kts 279°
2026-05-01 12:35 59.60763 17.65141 5526 ft 163 kts 279°
2026-05-01 12:35 59.60905 17.62911 5872 ft 164 kts 279°
2026-05-01 12:36 59.61048 17.60687 6222 ft 163 kts 279°
2026-05-01 12:36 59.61187 17.58453 6546 ft 164 kts 278°
2026-05-01 12:36 59.61251 17.56206 6902 ft 165 kts 271°
2026-05-01 12:36 59.61193 17.53929 7202 ft 167 kts 269°
2026-05-01 12:37 59.61109 17.51637 7525 ft 168 kts 269°
2026-05-01 12:37 59.61026 17.49332 7829 ft 168 kts 269°
2026-05-01 12:37 59.60942 17.47024 8134 ft 169 kts 269°
2026-05-01 12:37 59.60868 17.44709 8449 ft 169 kts 269°
2026-05-01 12:38 59.60801 17.42384 8752 ft 170 kts 270°
2026-05-01 12:38 59.60738 17.40047 9068 ft 171 kts 270°
2026-05-01 12:38 59.60675 17.37705 9394 ft 171 kts 270°
2026-05-01 12:38 59.60613 17.35351 9691 ft 172 kts 270°
2026-05-01 12:39 59.60551 17.32980 9993 ft 173 kts 270°
2026-05-01 12:39 59.60488 17.30601 10267 ft 173 kts 270°
2026-05-01 12:39 59.60423 17.28234 10571 ft 172 kts 270°
2026-05-01 12:39 59.60359 17.25873 10841 ft 172 kts 270°
2026-05-01 12:40 59.60295 17.23504 11092 ft 173 kts 270°
2026-05-01 12:40 59.60229 17.21128 11352 ft 173 kts 270°
2026-05-01 12:40 59.60164 17.18747 11607 ft 174 kts 270°
2026-05-01 12:40 59.60103 17.16357 11868 ft 174 kts 270°
2026-05-01 12:41 59.60049 17.14000 12129 ft 174 kts 271°
2026-05-01 12:41 59.59989 17.11578 12404 ft 174 kts 270°
2026-05-01 12:41 59.59924 17.09188 12664 ft 175 kts 270°
2026-05-01 12:41 59.59859 17.06794 12929 ft 175 kts 271°
2026-05-01 12:42 59.59790 17.04393 13183 ft 175 kts 270°
2026-05-01 12:42 59.59721 17.01990 13419 ft 176 kts 270°
2026-05-01 12:42 59.59651 16.99611 13649 ft 176 kts 270°
2026-05-01 12:42 59.59578 16.97163 13881 ft 177 kts 270°
2026-05-01 12:43 59.59506 16.94741 14096 ft 177 kts 270°
2026-05-01 12:43 59.59435 16.92311 14305 ft 177 kts 271°
2026-05-01 12:43 59.59364 16.89913 14511 ft 178 kts 271°
2026-05-01 12:43 59.59293 16.87470 14720 ft 178 kts 270°
2026-05-01 12:44 59.59221 16.85027 14920 ft 179 kts 270°
2026-05-01 12:44 59.59147 16.82581 15122 ft 179 kts 270°
2026-05-01 12:44 59.58997 16.77667 15503 ft 180 kts 270°
2026-05-01 12:45 59.58845 16.72739 15863 ft 180 kts 270°
2026-05-01 12:45 59.58768 16.70266 16046 ft 181 kts 270°
2026-05-01 12:45 59.58688 16.67784 16244 ft 181 kts 270°
2026-05-01 12:46 59.58609 16.65301 16442 ft 181 kts 270°
2026-05-01 12:46 59.58691 16.62844 16606 ft 180 kts 283°
2026-05-01 12:46 59.58977 16.60441 16803 ft 180 kts 285°
2026-05-01 12:46 59.59285 16.58041 16987 ft 180 kts 285°
2026-05-01 12:47 59.59579 16.55633 17163 ft 181 kts 284°
2026-05-01 12:47 59.59845 16.53205 17334 ft 181 kts 283°
2026-05-01 12:47 59.60093 16.50764 17503 ft 182 kts 283°
2026-05-01 12:47 59.60342 16.48329 17702 ft 180 kts 281°
2026-05-01 12:48 59.60588 16.45901 17864 ft 181 kts 281°
2026-05-01 12:48 59.60833 16.43464 18013 ft 181 kts 281°
2026-05-01 12:48 59.61078 16.41019 18166 ft 182 kts 281°
2026-05-01 12:48 59.61323 16.38571 18310 ft 182 kts 281°
2026-05-01 12:49 59.61567 16.36118 18482 ft 182 kts 281°
2026-05-01 12:49 59.61814 16.33657 18626 ft 183 kts 281°
2026-05-01 12:49 59.62060 16.31194 18762 ft 183 kts 281°
2026-05-01 12:49 59.62305 16.28720 18901 ft 184 kts 281°
2026-05-01 12:50 59.62551 16.26240 19026 ft 184 kts 281°
2026-05-01 12:50 59.62797 16.23750 19155 ft 185 kts 281°
2026-05-01 12:50 59.62731 16.21242 19259 ft 192 kts 249°
2026-05-01 12:50 59.61928 16.19064 19317 ft 199 kts 239°
2026-05-01 12:51 59.61044 16.16950 19423 ft 200 kts 239°
2026-05-01 12:51 59.60179 16.14841 19537 ft 200 kts 240°
2026-05-01 12:51 59.58523 16.10401 19767 ft 199 kts 243°
2026-05-01 12:52 59.57727 16.08159 19888 ft 200 kts 243°
2026-05-01 12:52 59.56148 16.03722 20086 ft 200 kts 243°
2026-05-01 12:52 59.55329 16.01424 20128 ft 204 kts 243°
2026-05-01 12:53 59.53667 15.96761 20159 ft 212 kts 242°
2026-05-01 12:53 59.52812 15.94380 20161 ft 214 kts 242°
2026-05-01 12:53 59.51959 15.92004 20163 ft 216 kts 242°
2026-05-01 12:54 59.51089 15.89574 20164 ft 218 kts 242°
2026-05-01 12:54 59.49324 15.84658 20149 ft 221 kts 242°
2026-05-01 12:54 59.48434 15.82183 20155 ft 222 kts 242°
2026-05-01 12:55 59.46640 15.77204 20163 ft 224 kts 242°
2026-05-01 12:55 59.45735 15.74701 20165 ft 225 kts 242°
2026-05-01 12:55 59.44829 15.72194 20179 ft 225 kts 241°
2026-05-01 12:56 59.43931 15.69671 20181 ft 225 kts 241°
2026-05-01 12:56 59.43032 15.67148 20180 ft 226 kts 241°
2026-05-01 12:56 59.42127 15.64631 20181 ft 226 kts 241°
2026-05-01 12:56 59.41216 15.62120 20183 ft 226 kts 241°
2026-05-01 12:57 59.40299 15.59607 20183 ft 226 kts 240°
2026-05-01 12:57 59.38466 15.54588 20186 ft 226 kts 240°
2026-05-01 12:57 59.37550 15.52077 20189 ft 226 kts 240°
2026-05-01 12:58 59.36634 15.49570 20189 ft 226 kts 240°
2026-05-01 12:58 59.35717 15.47063 20196 ft 226 kts 240°
2026-05-01 12:58 59.34801 15.44555 20198 ft 226 kts 241°
2026-05-01 12:59 59.32968 15.39554 20203 ft 226 kts 240°
2026-05-01 12:59 59.32050 15.37052 20203 ft 226 kts 240°
2026-05-01 12:59 59.30212 15.32056 20205 ft 226 kts 240°
2026-05-01 13:00 59.28374 15.27075 20206 ft 226 kts 240°
2026-05-01 13:00 59.27456 15.24585 20191 ft 225 kts 240°
2026-05-01 13:01 59.25624 15.19603 20210 ft 226 kts 240°
2026-05-01 13:01 59.24700 15.17110 20210 ft 227 kts 240°
2026-05-01 13:01 59.22847 15.12119 20209 ft 227 kts 240°
2026-05-01 13:02 59.21918 15.09620 20212 ft 227 kts 240°
2026-05-01 13:07 59.02615 14.58234 20231 ft 227 kts 238°
2026-05-01 13:07 59.01677 14.55768 20229 ft 227 kts 238°
2026-05-01 13:07 59.00736 14.53302 20230 ft 228 kts 238°
2026-05-01 13:08 58.99796 14.50829 20231 ft 228 kts 238°
2026-05-01 13:08 58.98855 14.48358 20236 ft 228 kts 238°
2026-05-01 13:08 58.97912 14.45891 20236 ft 228 kts 238°
2026-05-01 13:08 58.96969 14.43423 20238 ft 228 kts 238°
2026-05-01 13:09 58.96025 14.40955 20237 ft 228 kts 238°
2026-05-01 13:09 58.95079 14.38484 20233 ft 228 kts 238°
2026-05-01 13:09 58.94132 14.36010 20233 ft 229 kts 238°
2026-05-01 13:09 58.93184 14.33542 20236 ft 229 kts 238°
2026-05-01 13:10 58.92236 14.31069 20247 ft 229 kts 238°
2026-05-01 13:10 58.91297 14.28632 20247 ft 229 kts 238°
2026-05-01 13:10 58.90346 14.26162 20249 ft 229 kts 238°
2026-05-01 13:10 58.89394 14.23693 20248 ft 229 kts 238°
2026-05-01 13:11 58.88442 14.21220 20241 ft 229 kts 238°
2026-05-01 13:11 58.87488 14.18747 20241 ft 229 kts 238°
2026-05-01 13:11 58.86535 14.16279 20240 ft 229 kts 238°
2026-05-01 13:11 58.85580 14.13811 20243 ft 229 kts 238°
2026-05-01 13:12 58.84626 14.11347 20241 ft 229 kts 238°
2026-05-01 13:12 58.83671 14.08884 20240 ft 229 kts 238°
2026-05-01 13:12 58.82718 14.06421 20232 ft 229 kts 238°
2026-05-01 13:12 58.81763 14.03958 20239 ft 229 kts 238°
2026-05-01 13:13 58.80806 14.01494 20249 ft 230 kts 238°
2026-05-01 13:13 58.79849 13.99026 20248 ft 230 kts 237°
2026-05-01 13:13 58.78888 13.96566 20247 ft 230 kts 237°
2026-05-01 13:13 58.77926 13.94105 20245 ft 230 kts 237°
2026-05-01 13:14 58.76964 13.91646 20243 ft 230 kts 237°
2026-05-01 13:14 58.76004 13.89189 20242 ft 230 kts 237°
2026-05-01 13:14 58.75044 13.86737 20244 ft 229 kts 237°
2026-05-01 13:14 58.74084 13.84283 20250 ft 229 kts 237°
2026-05-01 13:15 58.73125 13.81837 20251 ft 229 kts 237°
2026-05-01 13:15 58.72165 13.79392 20251 ft 229 kts 237°
2026-05-01 13:15 58.71206 13.76948 20251 ft 229 kts 237°
2026-05-01 13:15 58.70244 13.74505 20256 ft 229 kts 237°
2026-05-01 13:16 58.69284 13.72065 20249 ft 229 kts 237°
2026-05-01 13:16 58.68322 13.69628 20249 ft 229 kts 237°
2026-05-01 13:16 58.67361 13.67190 20248 ft 229 kts 237°
2026-05-01 13:17 58.64473 13.59884 20258 ft 229 kts 237°
2026-05-01 13:17 58.63521 13.57481 20259 ft 229 kts 237°
2026-05-01 13:18 58.61588 13.52607 20259 ft 230 kts 237°
2026-05-01 13:18 58.60620 13.50172 20239 ft 230 kts 237°
2026-05-01 13:18 58.59654 13.47730 20249 ft 230 kts 237°
2026-05-01 13:18 58.58685 13.45297 20252 ft 230 kts 237°
2026-05-01 13:19 58.57715 13.42864 20257 ft 230 kts 237°
2026-05-01 13:19 58.56742 13.40428 20255 ft 230 kts 237°
2026-05-01 13:19 58.54789 13.35545 20267 ft 231 kts 237°
2026-05-01 13:20 58.53810 13.33102 20268 ft 232 kts 237°
2026-05-01 13:20 58.52766 13.30623 19920 ft 248 kts 228°
2026-05-01 13:20 58.51343 13.28587 19566 ft 262 kts 218°
2026-05-01 13:21 58.48161 13.24691 18851 ft 279 kts 218°
2026-05-01 13:21 58.46545 13.22582 18502 ft 284 kts 220°
2026-05-01 13:21 58.44925 13.20377 18096 ft 288 kts 220°
2026-05-01 13:21 58.43282 13.18155 17699 ft 291 kts 220°
2026-05-01 13:22 58.41620 13.15918 17299 ft 293 kts 220°
2026-05-01 13:22 58.39962 13.13667 17043 ft 291 kts 220°
2026-05-01 13:22 58.38324 13.11442 16821 ft 288 kts 220°
2026-05-01 13:22 58.36696 13.09247 16580 ft 286 kts 220°
2026-05-01 13:23 58.35073 13.07066 16324 ft 285 kts 219°
2026-05-01 13:23 58.33466 13.04909 16082 ft 278 kts 219°
2026-05-01 13:23 58.31904 13.02828 15825 ft 271 kts 219°
2026-05-01 13:23 58.30376 13.00801 15554 ft 265 kts 219°
2026-05-01 13:24 58.28872 12.98807 15275 ft 262 kts 219°
2026-05-01 13:24 58.27375 12.96809 14871 ft 264 kts 220°
2026-05-01 13:24 58.25870 12.94799 14482 ft 265 kts 220°
2026-05-01 13:25 58.22838 12.90764 13648 ft 267 kts 220°
2026-05-01 13:25 58.21313 12.88740 13214 ft 268 kts 220°
2026-05-01 13:25 58.19787 12.86716 12768 ft 268 kts 220°
2026-05-01 13:25 58.18263 12.84698 12365 ft 267 kts 219°
2026-05-01 13:26 58.16773 12.82725 11958 ft 263 kts 219°
2026-05-01 13:26 58.15263 12.80731 11560 ft 259 kts 219°
2026-05-01 13:26 58.13791 12.78795 11168 ft 256 kts 220°
2026-05-01 13:26 58.12355 12.76904 10782 ft 254 kts 220°
2026-05-01 13:27 58.10915 12.75012 10516 ft 247 kts 220°
2026-05-01 13:27 58.09523 12.73149 10200 ft 244 kts 220°
2026-05-01 13:27 58.06794 12.69423 9494 ft 240 kts 221°
2026-05-01 13:28 58.04081 12.65705 8702 ft 242 kts 220°
2026-05-01 13:28 58.02717 12.63848 8298 ft 242 kts 220°
2026-05-01 13:29 57.99988 12.60128 7495 ft 241 kts 220°
2026-05-01 13:29 57.97277 12.56458 6831 ft 236 kts 218°
2026-05-01 13:30 57.91424 12.51083 5558 ft 229 kts 210°
2026-05-01 13:31 57.88608 12.48507 4935 ft 221 kts 211°
2026-05-01 13:31 57.84665 12.44870 4207 ft 204 kts 211°
2026-05-01 13:32 57.82161 12.42514 3679 ft 193 kts 211°
2026-05-01 13:33 57.78844 12.39522 3009 ft 165 kts 212°
2026-05-01 13:33 57.76811 12.37674 2566 ft 162 kts 212°
2026-05-01 13:34 57.74817 12.35761 2146 ft 161 kts 212°
2026-05-01 13:34 57.72862 12.33983 1691 ft 149 kts 211°
2026-05-01 13:35 57.71179 12.32496 1324 ft 116 kts 212°
2026-05-01 13:35 57.70497 12.31857 1137 ft 108 kts 213°
2026-05-01 13:35 57.69101 12.30576 892 ft 112 kts 214°
2026-05-01 13:36 57.68399 12.29929 748 ft 115 kts 216°
2026-05-01 13:36 57.67684 12.29261 584 ft 113 kts 211°
2026-05-01 13:36 57.66674 12.28335 509 ft 37 kts 201°
2026-05-01 13:37 57.66489 12.28172 508 ft 24 kts 206°
2026-05-01 13:37 57.66363 12.28053 507 ft 17 kts 208°
2026-05-01 13:37 57.66268 12.27964 506 ft 14 kts 207°
2026-05-01 13:37 57.66189 12.27919 506 ft 12 kts 179°
2026-05-01 13:38 57.66164 12.28219 506 ft 17 kts 24°
2026-05-01 13:38 57.66275 12.28318 507 ft 18 kts 25°
2026-05-01 13:38 57.66387 12.28420 508 ft 18 kts 27°
2026-05-01 13:39 57.66503 12.28524 508 ft 19 kts 27°
2026-05-01 13:39 57.66617 12.28632 508 ft 18 kts 26°
2026-05-01 13:39 57.66658 12.28797 512 ft 16 kts 123°
2026-05-01 13:39 57.66608 12.28979 512 ft 13 kts 101°
2026-05-01 13:40 57.66665 12.29049 512 ft 12 kts 25°
2026-05-01 13:40 57.66744 12.29129 512 ft 14 kts 31°
2026-05-01 13:40 57.66828 12.29217 512 ft 7 kts 26°
2026-05-01 13:40 57.66841 12.29188 512 ft 5 kts 267°
2026-05-01 13:41 57.66835 12.29149 512 ft 4 kts 251°
2026-05-01 13:41 57.66830 12.29124 512 ft 0 kts 251°
2026-05-01 13:41 57.66829 12.29117 512 ft 0 kts 251°